FW7086 Weather Reports


Display with metric or nautical units.
time (UTC)temp
F
wind
direction
speed
MPH
gust
MPH
rain 1hr
in
rain 24hr
in
rain mn
in
humidity
%
barometer
mb
20260905010329 88 48 0.0 0.0 0.00 0.00 0.00 71 1013.7
20260905005826 88 152 0.0 0.0 0.00 0.00 0.00 71 1013.8
20260905005316 89 155 0.0 0.0 0.00 0.00 0.00 70 1013.8
20260905004816 89 178 0.0 1.0 0.00 0.00 0.00 70 1013.9
20260905004310 89 118 1.0 1.0 0.00 0.00 0.00 70 1013.8
20260905003806 89 179 1.0 2.0 0.00 0.00 0.00 69 1014.1
20260905003302 89 224 1.0 1.0 0.00 0.00 0.00 69 1013.9
20260905002757 89 257 0.0 1.0 0.00 0.00 0.00 69 1013.7
20260905002257 89 0 1.0 1.0 0.00 0.00 0.00 68 1013.5
20260905001752 90 139 0.0 1.0 0.00 0.00 0.00 67 1013.5
20260905001251 90 131 0.0 1.0 0.00 0.00 0.00 67 1013.4
20260905000747 90 265 2.0 2.0 0.00 0.00 0.00 66 1013.6
20260905000243 90 259 2.0 3.0 0.00 0.00 0.00 65 1013.6
20260904235738 90 322 3.0 3.0 0.00 0.00 0.00 65 1013.5
20260904235238 90 159 2.0 3.0 0.00 0.00 0.00 65 1013.6
20260904234732 91 279 2.0 3.0 0.00 0.00 0.00 65 1013.4
20260904234228 91 131 3.0 3.0 0.00 0.00 0.00 64 1013.4
20260904233723 91 155 2.0 3.0 0.00 0.00 0.00 63 1013.4
20260904233220 92 181 2.0 3.0 0.00 0.00 0.00 63 1013.5
20260904232716 92 230 4.0 6.0 0.00 0.00 0.00 62 1013.6
20260904232212 92 193 4.0 6.0 0.00 0.00 0.00 62 1013.4
20260904231707 93 155 4.0 7.0 0.00 0.00 0.00 60 1013.6
20260904231203 93 347 2.0 3.0 0.00 0.00 0.00 60 1013.9
20260904230702 93 70 3.0 3.0 0.00 0.00 0.00 59 1013.8
20260904230157 93 129 1.0 1.0 0.00 0.00 0.00 59 1013.7
20260904225655 93 218 2.0 2.0 0.00 0.00 0.00 59 1013.7
20260904225151 93 298 4.0 7.0 0.00 0.00 0.00 58 1013.6
20260904224645 93 207 1.0 2.0 0.00 0.00 0.00 57 1013.6
20260904224145 93 266 1.0 1.0 0.00 0.00 0.00 57 1013.6
20260904223644 93 162 2.0 2.0 0.00 0.00 0.00 58 1013.7
20260904223139 93 131 3.0 4.0 0.00 0.00 0.00 58 1013.8
20260904222635 93 192 4.0 6.0 0.00 0.00 0.00 58 1013.7
20260904222131 93 199 3.0 3.0 0.00 0.00 0.00 57 1013.7
20260904221631 93 189 1.0 2.0 0.00 0.00 0.00 57 1013.7
20260904221131 94 24 1.0 2.0 0.00 0.00 0.00 56 1013.8
20260904220626 95 336 3.0 4.0 0.00 0.00 0.00 56 1013.6
20260904220121 94 179 4.0 6.0 0.00 0.00 0.00 56 1013.7
20260904215615 94 127 2.0 2.0 0.00 0.00 0.00 56 1013.6
20260904215111 94 183 3.0 3.0 0.00 0.00 0.00 56 1013.6
20260904214606 94 173 3.0 4.0 0.00 0.00 0.00 56 1013.4
20260904214102 93 171 2.0 2.0 0.00 0.00 0.00 56 1013.7
20260904213600 93 203 4.0 6.0 0.00 0.00 0.00 56 1013.6
20260904213057 94 196 4.0 4.0 0.00 0.00 0.00 55 1013.7
20260904212556 94 158 2.0 2.0 0.00 0.00 0.00 55 1013.7
20260904212051 93 164 4.0 6.0 0.00 0.00 0.00 56 1013.3
20260904211551 93 175 6.0 8.0 0.00 0.00 0.00 58 1013.4
20260904211046 94 188 8.0 9.0 0.00 0.00 0.00 57 1013.6
20260904210545 93 214 5.0 9.0 0.00 0.00 0.00 57 1013.6
20260904210042 94 219 4.0 6.0 0.00 0.00 0.00 56 1013.5
20260904205542 94 210 2.0 3.0 0.00 0.00 0.00 56 1013.5
20260904205039 93 99 2.0 3.0 0.00 0.00 0.00 58 1013.7
20260904204535 93 187 4.0 6.0 0.00 0.00 0.00 57 1013.6
20260904204030 94 192 3.0 3.0 0.00 0.00 0.00 56 1013.9
20260904203526 93 178 6.0 7.0 0.00 0.00 0.00 56 1014.1
20260904203022 93 183 4.0 4.0 0.00 0.00 0.00 57 1014.1
20260904202518 93 227 6.0 9.0 0.00 0.00 0.00 57 1014.2
20260904202014 93 182 2.0 3.0 0.00 0.00 0.00 58 1014.3
20260904201509 93 135 3.0 4.0 0.00 0.00 0.00 58 1014.1
20260904201004 92 166 2.0 2.0 0.00 0.00 0.00 58 1014.2
20260904200503 93 179 2.0 2.0 0.00 0.00 0.00 57 1014.2
20260904195958 93 173 4.0 6.0 0.00 0.00 0.00 56 1014.5
20260904195456 93 157 7.0 8.0 0.00 0.00 0.00 55 1014.5
20260904194955 92 169 4.0 4.0 0.00 0.00 0.00 55 1014.5
20260904194450 92 204 6.0 9.0 0.00 0.00 0.00 56 1014.6
20260904193945 92 136 3.0 4.0 0.00 0.00 0.00 57 1014.9
20260904193441 92 201 7.0 9.0 0.00 0.00 0.00 56 1014.9
20260904192936 91 173 6.0 9.0 0.00 0.00 0.00 57 1014.7
20260904192431 92 166 8.0 10.0 0.00 0.00 0.00 56 1014.9
20260904191927 92 187 5.0 7.0 0.00 0.00 0.00 55 1014.9
20260904191424 91 186 2.0 2.0 0.00 0.00 0.00 57 1015.0
20260904190921 91 119 0.0 0.0 0.00 0.00 0.00 57 1015.2
20260904190421 91 181 2.0 3.0 0.00 0.00 0.00 58 1015.2
20260904185917 91 133 1.0 3.0 0.00 0.00 0.00 57 1015.4
20260904185413 90 188 4.0 4.0 0.00 0.00 0.00 56 1015.5
20260904184912 89 66 1.0 1.0 0.00 0.00 0.00 59 1015.6
20260904184408 88 104 0.0 0.0 0.00 0.00 0.00 60 1015.5
20260904183903 86 83 1.0 2.0 0.00 0.00 0.00 62 1015.7
20260904183358 86 46 1.0 1.0 0.00 0.00 0.00 63 1016.0
20260904182854 86 78 0.0 1.0 0.00 0.00 0.00 64 1015.8
20260904182354 85 93 1.0 2.0 0.00 0.00 0.00 65 1015.7
20260904181849 85 59 3.0 6.0 0.00 0.00 0.00 64 1015.7
20260904181344 85 149 3.0 3.0 0.00 0.00 0.00 65 1015.9
20260904180839 84 139 1.0 2.0 0.00 0.00 0.00 67 1016.1
20260904180334 84 65 2.0 3.0 0.00 0.00 0.00 67 1016.1
20260904175833 86 257 2.0 2.0 0.00 0.00 0.00 65 1016.5
20260904175334 87 113 2.0 4.0 0.00 0.00 0.00 63 1016.8
20260904174832 85 132 0.0 1.0 0.00 0.00 0.00 66 1016.8
20260904174328 85 123 2.0 4.0 0.00 0.00 0.00 67 1017.0
20260904173824 86 188 0.0 0.0 0.00 0.00 0.00 67 1017.2
20260904173320 84 129 3.0 4.0 0.00 0.00 0.00 68 1017.4
20260904172815 85 44 2.0 3.0 0.00 0.00 0.00 68 1018.1
20260904172314 84 25 2.0 2.0 0.00 0.00 0.00 69 1018.3
20260904171809 84 82 2.0 2.0 0.00 0.00 0.00 68 1018.3
20260904171305 84 153 3.0 7.0 0.00 0.00 0.00 68 1018.0
20260904170801 83 55 2.0 2.0 0.00 0.00 0.00 71 1017.9
20260904170257 84 38 6.0 8.0 0.00 0.00 0.00 70 1018.1
20260904165756 83 140 4.0 8.0 0.00 0.00 0.00 72 1018.2
20260904165250 82 71 8.0 15.0 0.00 0.00 0.00 71 1018.0
20260904164750 83 32 5.0 7.0 0.00 0.00 0.00 71 1018.2
20260904164245 82 25 1.0 3.0 0.00 0.00 0.00 73 1018.2
20260904163741 82 96 1.0 2.0 0.00 0.00 0.00 74 1018.3
20260904163236 82 69 1.0 2.0 0.00 0.00 0.00 74 1018.6
20260904162735 81 98 9.0 13.0 0.00 0.00 0.00 73 1018.4
20260904162231 81 66 5.0 10.0 0.00 0.00 0.00 73 1018.5
20260904161727 81 35 5.0 6.0 0.00 0.00 0.00 73 1018.5
20260904161226 81 88 4.0 8.0 0.00 0.00 0.00 74 1018.6
20260904160722 81 42 7.0 13.0 0.00 0.00 0.00 75 1018.6
20260904160218 81 52 3.0 6.0 0.00 0.00 0.00 75 1018.4
20260904155717 81 104 4.0 8.0 0.00 0.00 0.00 75 1018.6
20260904155217 81 58 4.0 7.0 0.00 0.00 0.00 75 1018.7
20260904154715 80 18 5.0 7.0 0.00 0.00 0.00 77 1018.6
20260904154210 81 47 2.0 2.0 0.00 0.00 0.00 77 1018.3
20260904153706 81 66 6.0 9.0 0.00 0.00 0.00 77 1018.2
20260904153201 81 41 3.0 6.0 0.00 0.00 0.00 76 1018.3
20260904152657 82 39 3.0 7.0 0.00 0.00 0.00 75 1017.7
20260904152152 82 71 8.0 10.0 0.00 0.00 0.00 76 1017.7
20260904151647 83 354 2.0 2.0 0.00 0.00 0.00 77 1017.5
20260904151146 82 79 2.0 4.0 0.00 0.00 0.00 78 1017.1
20260904150642 82 70 7.0 11.0 0.00 0.00 0.00 78 1017.3
20260904150138 83 90 2.0 3.0 0.00 0.00 0.00 77 1017.2
20260904145636 82 128 1.0 2.0 0.00 0.00 0.00 79 1017.3
20260904145131 81 70 4.0 4.0 0.00 0.00 0.00 82 1017.2
20260904144627 81 76 2.0 4.0 0.00 0.00 0.00 82 1017.3
20260904144122 81 67 2.0 3.0 0.00 0.00 0.00 82 1017.3
20260904143618 81 52 2.0 3.0 0.00 0.00 0.00 83 1017.3
20260904143114 82 68 5.0 8.0 0.00 0.00 0.00 81 1017.1
20260904142611 81 44 2.0 3.0 0.00 0.00 0.00 81 1017.2
20260904142111 82 32 5.0 8.0 0.00 0.00 0.00 81 1017.0
20260904141606 82 29 2.0 2.0 0.00 0.00 0.00 81 1016.5
20260904141102 83 40 3.0 3.0 0.00 0.00 0.00 79 1016.8
20260904140557 83 23 2.0 2.0 0.00 0.00 0.00 79 1016.8
20260904140051 82 43 2.0 2.0 0.00 0.00 0.00 81 1016.8
20260904135551 82 345 2.0 3.0 0.00 0.00 0.00 81 1016.8
20260904135047 81 343 1.0 2.0 0.00 0.00 0.00 82 1016.8
20260904134543 81 41 0.0 1.0 0.00 0.00 0.00 83 1016.7
20260904134036 81 47 0.0 1.0 0.00 0.00 0.00 82 1016.7
20260904133531 81 41 2.0 4.0 0.00 0.00 0.00 83 1016.8
20260904133028 80 15 4.0 6.0 0.00 0.00 0.00 84 1016.4
20260904132528 80 0 1.0 2.0 0.00 0.00 0.00 84 1016.4
20260904132027 81 45 1.0 1.0 0.00 0.00 0.00 84 1016.1
20260904131527 80 325 2.0 2.0 0.00 0.00 0.00 83 1016.3
20260904131023 80 53 1.0 1.0 0.00 0.00 0.00 83 1016.2
20260904130522 80 77 1.0 2.0 0.00 0.00 0.00 84 1016.4
20260904130017 81 70 2.0 2.0 0.00 0.00 0.00 83 1016.1
20260904125514 80 45 1.0 2.0 0.00 0.00 0.00 84 1016.1
20260904125008 80 348 1.0 2.0 0.00 0.00 0.00 83 1016.1
20260904124504 80 65 2.0 3.0 0.00 0.00 0.00 83 1015.9
20260904124000 81 31 1.0 2.0 0.00 0.00 0.00 80 1015.8
20260904123459 80 32 1.0 1.0 0.00 0.00 0.00 80 1015.7
20260904122955 80 39 0.0 0.0 0.00 0.00 0.00 80 1015.7
20260904122455 80 25 0.0 0.0 0.00 0.00 0.00 80 1015.6
20260904121949 80 40 0.0 1.0 0.00 0.00 0.00 80 1015.4
20260904121446 79 29 0.0 0.0 0.00 0.00 0.00 81 1015.4
20260904120942 79 46 0.0 0.0 0.00 0.00 0.00 81 1015.3
20260904120437 78 103 0.0 0.0 0.00 0.00 0.00 82 1015.4
20260904115932 78 23 0.0 0.0 0.00 0.00 0.00 83 1015.2
20260904115428 78 21 0.0 0.0 0.00 0.00 0.00 82 1015.0
20260904114927 78 65 0.0 0.0 0.00 0.00 0.00 82 1014.9
20260904114427 79 76 0.0 0.0 0.00 0.00 0.00 81 1014.7
20260904113923 78 159 1.0 1.0 0.00 0.00 0.00 81 1014.6
20260904113422 78 158 0.0 0.0 0.00 0.00 0.00 82 1014.6
20260904112921 78 147 1.0 1.0 0.00 0.00 0.00 82 1014.5
20260904112418 79 147 0.0 0.0 0.00 0.00 0.00 81 1014.3
20260904111913 79 151 0.0 0.0 0.00 0.00 0.00 80 1014.5
20260904111408 80 149 0.0 0.0 0.00 0.00 0.00 79 1014.3
20260904110904 80 143 0.0 0.0 0.00 0.00 0.00 78 1014.3
20260904110403 80 157 1.0 1.0 0.00 0.00 0.00 78 1014.4
20260904105858 80 100 0.0 0.0 0.00 0.00 0.00 78 1014.5
20260904105353 80 218 0.0 0.0 0.00 0.00 0.00 78 1014.3
20260904104848 80 78 0.0 0.0 0.00 0.00 0.00 79 1014.5
20260904104343 80 328 0.0 0.0 0.00 0.00 0.00 80 1014.1
20260904103841 79 179 2.0 3.0 0.00 0.00 0.00 81 1014.1
20260904103340 79 91 0.0 0.0 0.00 0.00 0.00 82 1014.0
20260904102836 80 91 0.0 0.0 0.00 0.00 0.00 81 1013.9
20260904102332 80 137 0.0 0.0 0.00 0.00 0.00 81 1014.0
20260904101827 80 182 1.0 1.0 0.00 0.00 0.00 81 1013.9
20260904101324 80 163 1.0 1.0 0.00 0.00 0.00 81 1013.9
20260904100819 80 89 0.0 0.0 0.00 0.00 0.00 81 1014.1
20260904100315 80 119 0.0 0.0 0.00 0.00 0.00 80 1013.9
20260904095815 81 153 0.0 1.0 0.00 0.00 0.00 80 1013.9
20260904095310 81 178 1.0 2.0 0.00 0.00 0.00 80 1014.0
20260904094805 80 163 1.0 2.0 0.00 0.00 0.00 81 1013.9
20260904094300 80 158 2.0 3.0 0.00 0.00 0.00 81 1013.8
20260904093757 80 197 3.0 4.0 0.00 0.00 0.00 81 1014.0
20260904093256 80 164 3.0 4.0 0.00 0.00 0.00 81 1014.0
20260904092752 80 172 3.0 4.0 0.00 0.00 0.00 82 1014.0
20260904092249 80 165 1.0 1.0 0.00 0.00 0.00 82 1014.0
20260904091745 80 122 0.0 1.0 0.00 0.00 0.00 83 1014.1
20260904091244 80 179 2.0 2.0 0.00 0.00 0.00 83 1014.1
20260904090740 80 169 2.0 2.0 0.00 0.00 0.00 83 1014.0
20260904090236 80 212 2.0 3.0 0.00 0.00 0.00 83 1014.3
20260904085736 80 181 2.0 2.0 0.00 0.00 0.00 84 1014.4
20260904085231 79 159 1.0 1.0 0.00 0.00 0.00 85 1014.5
20260904084726 79 159 0.0 0.0 0.00 0.00 0.00 87 1014.7
20260904084222 78 151 0.0 0.0 0.00 0.00 0.00 88 1014.7
20260904083718 78 161 0.0 0.0 0.00 0.00 0.00 88 1015.0
20260904083215 78 161 0.0 0.0 0.00 0.00 0.00 88 1014.7
20260904082714 78 162 0.0 0.0 0.00 0.00 0.00 88 1014.8
20260904082210 78 162 0.0 0.0 0.00 0.00 0.00 88 1014.8
20260904081705 78 159 0.0 0.0 0.00 0.00 0.00 88 1014.5
20260904081200 78 157 0.0 0.0 0.00 0.00 0.00 88 1014.6
20260904080656 78 157 0.0 0.0 0.00 0.00 0.00 88 1014.7
20260904080152 79 157 0.0 0.0 0.00 0.00 0.00 87 1014.7
20260904075648 79 155 0.0 0.0 0.00 0.00 0.00 86 1014.5
20260904075143 80 156 0.0 0.0 0.00 0.00 0.00 85 1014.4
20260904074642 80 156 0.0 0.0 0.00 0.00 0.00 85 1014.3
20260904074136 81 159 0.0 0.0 0.00 0.00 0.00 84 1014.2
20260904073632 81 174 2.0 2.0 0.00 0.00 0.00 83 1014.0
20260904073128 81 160 0.0 0.0 0.00 0.00 0.00 83 1014.1
20260904072623 81 137 0.0 1.0 0.00 0.00 0.00 84 1014.1
20260904072119 81 190 2.0 2.0 0.00 0.00 0.00 83 1013.9
20260904071614 81 172 1.0 2.0 0.00 0.00 0.00 83 1013.8
20260904071109 81 201 2.0 3.0 0.00 0.00 0.00 84 1014.0
20260904070608 81 192 3.0 4.0 0.00 0.00 0.00 84 1013.9
20260904065557 80 155 2.0 2.0 0.00 0.00 0.00 85 1014.1
20260904065054 80 161 1.0 1.0 0.00 0.00 0.00 85 1014.3
20260904064550 80 142 2.0 3.0 0.00 0.00 0.00 86 1014.4
20260904064049 80 160 2.0 2.0 0.00 0.00 0.00 85 1014.4
20260904063546 80 146 1.0 1.0 0.00 0.00 0.00 86 1014.4
20260904063041 79 131 0.0 1.0 0.00 0.00 0.00 87 1014.7
20260904062537 79 95 0.0 0.0 0.00 0.00 0.00 87 1014.8
20260904062032 78 67 0.0 0.0 0.00 0.00 0.00 86 1015.0
20260904061528 78 110 0.0 0.0 0.00 0.00 0.00 85 1015.1
20260904061025 78 86 0.0 0.0 0.00 0.00 0.00 86 1015.2
20260904060521 77 34 0.0 0.0 0.00 0.00 0.00 86 1015.4
20260904060016 77 34 0.0 0.0 0.00 0.00 0.00 86 1015.5
20260904055512 77 34 0.0 0.0 0.00 0.00 0.00 86 1015.4
20260904055007 77 34 0.0 0.0 0.00 0.00 0.00 86 1015.5
20260904054502 77 34 0.0 0.0 0.00 0.00 0.00 85 1015.5
20260904053958 77 34 0.0 0.0 0.00 0.00 0.00 85 1015.6
20260904053457 78 34 0.0 0.0 0.00 0.00 0.00 85 1015.6
20260904052953 78 9 0.0 0.0 0.00 0.00 0.00 84 1015.5
20260904052449 78 6 0.0 0.0 0.00 0.00 0.00 84 1015.4
20260904051945 78 6 0.0 0.0 0.00 0.00 0.00 84 1015.5
20260904051442 78 11 0.0 0.0 0.00 0.00 0.00 84 1015.3
20260904050940 78 4 0.0 0.0 0.00 0.00 0.00 84 1015.2
20260904050437 78 2 0.0 0.0 0.00 0.00 0.00 84 1015.3
20260904045937 78 20 0.0 0.0 0.00 0.00 0.00 84 1015.0
20260904045432 78 20 0.0 0.0 0.00 0.00 0.00 83 1015.2
20260904044932 78 20 0.0 0.0 0.00 0.00 0.00 83 1015.3
20260904044428 78 20 0.0 0.0 0.00 0.00 0.00 83 1015.1
20260904043924 78 20 0.0 0.0 0.00 0.00 0.00 82 1015.2
20260904043421 78 20 0.0 0.0 0.00 0.00 0.00 82 1015.1
20260904042916 78 20 0.0 0.0 0.00 0.00 0.00 82 1015.2
20260904042412 79 20 0.0 0.0 0.00 0.00 0.00 81 1015.2
20260904041907 79 23 0.0 0.0 0.00 0.00 0.00 81 1015.3
20260904041403 79 23 0.0 0.0 0.00 0.00 0.00 80 1015.3
20260904040859 79 23 0.0 0.0 0.00 0.00 0.00 79 1015.3
20260904040354 80 33 0.0 0.0 0.00 0.00 0.00 79 1015.4
20260904035850 80 44 0.0 0.0 0.00 0.00 0.00 79 1015.4
20260904035346 80 44 0.0 0.0 0.00 0.00 0.00 78 1015.3
20260904034845 80 53 1.0 1.0 0.00 0.00 0.00 78 1015.4
20260904034341 80 62 0.0 0.0 0.00 0.00 0.00 78 1015.3
20260904033836 80 28 0.0 0.0 0.00 0.00 0.00 78 1015.3
20260904033332 81 5 0.0 0.0 0.00 0.00 0.00 78 1015.3
20260904032829 81 17 0.0 0.0 0.00 0.00 0.00 78 1015.4
20260904032328 81 35 0.0 0.0 0.00 0.00 0.00 78 1015.5
20260904031822 81 28 0.0 0.0 0.00 0.00 0.00 78 1015.4
20260904031318 81 36 0.0 0.0 0.00 0.00 0.00 77 1015.4
20260904030814 81 14 0.0 0.0 0.00 0.00 0.00 77 1015.5
20260904030309 81 22 0.0 0.0 0.00 0.00 0.00 77 1015.4
20260904025805 81 66 0.0 0.0 0.00 0.00 0.00 77 1015.6
20260904025300 81 1 0.0 0.0 0.00 0.00 0.00 76 1015.6
20260904024755 82 17 0.0 0.0 0.00 0.00 0.00 77 1015.6
20260904024250 82 356 1.0 1.0 0.00 0.00 0.00 77 1015.7
20260904023747 81 55 0.0 0.0 0.00 0.00 0.00 77 1015.5
20260904023243 81 66 0.0 0.0 0.00 0.00 0.00 78 1015.3
20260904022742 81 67 0.0 0.0 0.00 0.00 0.00 78 1015.2
20260904022239 81 69 0.0 0.0 0.00 0.00 0.00 79 1015.1
20260904021735 81 88 0.0 0.0 0.00 0.00 0.00 78 1015.0
20260904021235 81 67 0.0 0.0 0.00 0.00 0.00 78 1015.1
20260904020731 80 27 0.0 0.0 0.00 0.00 0.00 79 1015.4
20260904020230 81 27 0.0 0.0 0.00 0.00 0.00 79 1015.3
20260904015729 81 27 0.0 0.0 0.00 0.00 0.00 78 1015.2
20260904015225 81 27 0.0 0.0 0.00 0.00 0.00 78 1015.2
20260904014723 81 27 0.0 0.0 0.00 0.00 0.00 77 1015.2
20260904014218 81 26 0.0 0.0 0.00 0.00 0.00 77 1015.1
20260904013715 81 27 0.0 0.0 0.00 0.00 0.00 76 1015.0
20260904013210 81 27 0.0 0.0 0.00 0.00 0.00 76 1014.9
20260904012706 82 26 0.0 0.0 0.00 0.00 0.00 76 1015.0
20260904012205 82 26 0.0 0.0 0.00 0.00 0.00 76 1015.0
20260904011705 82 49 0.0 0.0 0.00 0.00 0.00 75 1014.9
20260904011200 82 56 0.0 0.0 0.00 0.00 0.00 75 1014.5
20260904010655 82 66 0.0 0.0 0.00 0.00 0.00 74 1014.3